Weather in Tismenitsya

Ukraine / Ivano-Frankovsk District     48°54′07″N   24°50′53″E
temp.,
°C
wind,
m/s
gust,
m/s
humid.,
%
clouds,
%
prec.,
mm/h
press.,
hPa
HPBL,
m
17 april, sat
sat1700:00+3wnw51197100 0.3 1018638
03:00+3wnw4119799 0.4 1019543
06:00+2wnw379599 0.0 1019275
09:00+4nw138699 0.0 1020382
12:00+7nw237297 0.0 1019976
15:00+8nne336871 0.0 1019814
18:00+8ne336996 0.0 1019777
21:00+6ene368199 0.0 1019197
18 april, sun
sun1800:00+5ene248357 0.0 1020153
03:00+4e2485100 0.0 1020145
06:00+3se229293 0.0 101921
09:00+6ese238095 0.0 1019367
12:00+10ese3465100 0.0 10181118
15:00+12e3457100 0.1 10171260
18:00+11ene3464100 0.1 1016538
21:00+9ene3468100 0.1 101759
19 april, mon
mon1900:00+8ene2272100 0.0 101717
03:00+7ne1176100 0.0 101610
06:00+7ssw2282100 0.0 101633
09:00+8wsw018098 0.0 1016263
12:00+9se337997 0.2 1015596
15:00+11sse4470100 0.4 10151151
18:00+8se3483100 0.2 1015320
21:00+7ene3792100 0.4 1014281
20 april, tue
tue2000:00+7ene2693100 0.6 1013310
03:00+6ene3793100 1.2 1013362
06:00+6ne3693100 1.6 1012405
09:00+7nne3579100 1.8 1012547
12:00+9n346696 0.3 10111097
15:00+10n456294 0.8 10101192
18:00+10n466747 0.6 1010879
21:00+6nnw228261 0.7 101230
21 april, wed
wed2100:00+4wnw2289100 0.0 101316
03:00+4w2489100 0.0 1013100
06:00+5w2587100 0.1 1013143
09:00+7w3479100 0.1 1014557
12:00+6w4690100 0.9 1015620
15:00+11nw4663100 1.3 10141417
18:00+11nw346493 0.6 10151121
21:00+8s2281100 1.0 101712